Weather History for KESN - October, 2012

Change the Weather History Date:

Tuesday, October 2, 2012

  Actual Average Record
Temperature  
Mean Temperature 72 °F -  
Max Temperature 82 °F 72 °F 86 °F (1954)
Min Temperature 62 °F 51 °F 39 °F (1972)
Cooling Degree Days 7    
Growing Degree Days 22 (Base 50)    
Moisture  
Dew Point 67 °F    
Average Humidity 92    
Maximum Humidity 100    
Minimum Humidity 79    
Precipitation  
Precipitation 0.00 in - - ()
Sea Level Pressure  
Sea Level Pressure 29.97 in    
Wind  
Wind Speed 4 mph (SE)    
Max Wind Speed 12 mph    
Max Gust Speed -    
Visibility 10 miles    
Events Rain    
Averages and records for this station are not official NWS values.
T = Trace of Precipitation, MM = Missing Value Source: NWS Daily Summary

Daily Weather History Graph

Daily Weather History Graph

Search for Another Location

Airport or City:

Trip Planner

Search our weather history database for the weather conditions in past years. The results will help you decide how hot, cold, wet, or windy it might be!

Date:

Astronomy

Oct. 02, 2012 Rise Set
Actual Time 7:01 AM EDT 6:44 PM EDT
Civil Twilight 6:34 AM EDT 7:11 PM EDT
Nautical Twilight 6:04 AM EDT 7:42 PM EDT
Astronomical Twilight 5:33 AM EDT 8:13 PM EDT
Moon 7:58 PM EDT (10/2) 9:24 AM EDT (10/2)
Length of Visible Light 12h 36m
Length of Day
11h 43m
Waning Gibbous, 94% of the Moon is Illuminated
Oct 2
Waning Gibbous
Oct 8
Last Quarter
Oct 15
New
Oct 21
First Quarter
Oct 29
Full

Hourly Weather History & Observations

Time (EDT) Temp. Heat Index Dew Point Humidity Pressure Visibility Wind Dir Wind Speed Gust Speed Precip Events Conditions
12:03 AM 63.1 °F - 59.9 °F 89% 29.99 in 10.0 mi ESE 3.5 mph - N/A   Overcast
12:25 AM 63.0 °F - 60.3 °F 91% 29.99 in 10.0 mi Calm Calm - N/A   Overcast
12:46 AM 63.0 °F - 60.4 °F 91% 29.99 in 10.0 mi ESE 3.5 mph - N/A   Overcast
1:07 AM 63.0 °F - 60.8 °F 93% 29.98 in 10.0 mi SE 4.6 mph - N/A   Overcast
1:29 AM 62.6 °F - 60.8 °F 94% 29.99 in 10.0 mi Calm Calm - N/A   Overcast
1:50 AM 63.5 °F - 61.3 °F 93% 29.99 in 10.0 mi Calm Calm - N/A   Overcast
2:11 AM 63.5 °F - 61.5 °F 93% 29.98 in 10.0 mi East 3.5 mph - N/A   Overcast
2:32 AM 63.5 °F - 61.3 °F 93% 29.98 in 10.0 mi East 3.5 mph - N/A   Mostly Cloudy
2:54 AM 63.5 °F - 61.0 °F 91% 29.98 in 10.0 mi ESE 3.5 mph - N/A   Overcast
3:15 AM 63.7 °F - 61.2 °F 91% 29.97 in 10.0 mi Calm Calm - N/A   Mostly Cloudy
3:36 AM 63.7 °F - 61.5 °F 93% 29.97 in 10.0 mi East 3.5 mph - N/A   Scattered Clouds
3:58 AM 63.9 °F - 61.7 °F 93% 29.98 in 10.0 mi ESE 3.5 mph - N/A   Mostly Cloudy
4:19 AM 64.0 °F - 61.7 °F 92% 29.97 in 10.0 mi ESE 4.6 mph - N/A   Mostly Cloudy
4:40 AM 64.4 °F - 61.9 °F 92% 29.97 in 10.0 mi ESE 4.6 mph - N/A   Overcast
5:02 AM 64.4 °F - 62.2 °F 93% 29.97 in 10.0 mi ESE 5.8 mph - N/A   Overcast
5:23 AM 64.6 °F - 62.6 °F 93% 29.96 in 10.0 mi ESE 5.8 mph - N/A   Mostly Cloudy
5:44 AM 64.9 °F - 62.6 °F 92% 29.96 in 10.0 mi ESE 4.6 mph - N/A   Mostly Cloudy
5:47 AM 64.4 °F - 62.6 °F 94% 29.96 in 10.0 mi ESE 5.8 mph - N/A   Mostly Cloudy
6:05 AM 64.9 °F - 62.8 °F 93% 29.96 in 10.0 mi ESE 5.8 mph - N/A   Overcast
6:13 AM 65.1 °F - 63.0 °F 93% 29.96 in 10.0 mi ESE 5.8 mph - N/A   Overcast
6:51 AM 66.2 °F - 64.4 °F 94% 29.96 in 10.0 mi ESE 8.1 mph - N/A   Overcast
7:55 AM 66.2 °F - 64.4 °F 94% 29.96 in 10.0 mi ESE 8.1 mph - N/A   Overcast
8:51 AM 69.8 °F - 68.0 °F 94% 29.97 in 10.0 mi SE 8.1 mph - N/A   Overcast
9:55 AM 75.2 °F - 69.8 °F 83% 29.97 in 10.0 mi SE 9.2 mph - N/A   Mostly Cloudy
10:50 AM 75.2 °F - 71.6 °F 89% 29.97 in 10.0 mi SE 6.9 mph - N/A   Mostly Cloudy
11:53 AM 78.8 °F - 73.4 °F 83% 29.95 in 10.0 mi SSE 11.5 mph - N/A   Overcast
12:53 PM 80.6 °F 86.2 °F 75.2 °F 84% 29.94 in 7.0 mi SSE 10.4 mph - N/A   Overcast
1:53 PM 80.6 °F 86.2 °F 75.2 °F 84% 29.93 in 7.0 mi South 6.9 mph - N/A   Overcast
2:53 PM 82.4 °F 89.5 °F 75.2 °F 79% 29.91 in 10.0 mi SSW 11.5 mph - N/A   Overcast
3:53 PM 82.4 °F 89.5 °F 75.2 °F 79% 29.91 in 10.0 mi SSW 9.2 mph - N/A   Overcast
4:53 PM 80.6 °F 86.2 °F 75.2 °F 84% 29.92 in 10.0 mi SSW 11.5 mph - N/A Rain Light Rain
5:53 PM 77.0 °F - 77.0 °F 100% 29.93 in 10.0 mi WSW 9.2 mph - N/A Rain Light Rain
6:53 PM 75.2 °F - 75.2 °F 100% 29.94 in 7.0 mi Calm Calm - N/A   Overcast
7:53 PM 75.2 °F - 75.2 °F 100% 29.95 in 7.0 mi Calm Calm - N/A   Overcast
8:53 PM 75.2 °F - 75.2 °F 100% 29.96 in 7.0 mi South 3.5 mph - N/A   Overcast
10:25 PM 75.4 °F - 75.4 °F 100% 29.98 in 10.0 mi South 4.6 mph - N/A   Overcast
10:47 PM 75.4 °F - 75.4 °F 100% 29.99 in 10.0 mi SSW 4.6 mph - N/A   Overcast
11:08 PM 75.2 °F - 75.2 °F 100% 29.99 in 10.0 mi SSW 4.6 mph - N/A   Overcast
11:29 PM 75.2 °F - 75.2 °F 100% 29.99 in 10.0 mi South 5.8 mph - N/A   Overcast
11:50 PM 74.7 °F - 74.7 °F 100% 29.98 in 10.0 mi South 4.6 mph - N/A   Overcast